Back to catalog

OPS 9317

IDSCS 7

AliveMilitaryMEO
NORAD 2221·PAYLOAD·🇺🇸 United States

Launched Jun 16, 1966 from Cape Canaveral Space Force Station

Loading…

Next Passes (next 24 hours)

TLE

FreshSource: Space-Track

Epoch: Sep 14, 2026, 12:12 UTC

1 02221U 66053H   26257.50847543 -.00000119  00000-0  00000-0 0  9997
2 02221   8.6071  46.0964 0082570 177.6960 182.4308  1.06870357 51984

Track OPS 9317 in real time with AllMySat

Download on the App Store